Weather Roundup
Issued by NWS Corpus Christi, TX

Home | Current Version | Previous Version | Text Only | Print | Product List | Glossary On
Versions: 1 2 3 4 5 6 7 8 9 10 11 12 13 14 15 16 17 18 19 20 21 22 23 24 25 26 27 28 29 30 31 32 33 34 35 36 37 38 39 40 41 42 43 44 45 46 47 48 49 50
000
ASUS44 KCRP 200610
HRRCRP

SOUTH TEXAS REGIONAL WEATHER ROUNDUP
NATIONAL WEATHER SERVICE CORPUS CHRISTI TX
100 AM CDT SAT SEP 20 2014


TXZ229>244-200700-
...CORPUS CHRISTI AREA OBSERVATIONS...

CITY           SKY/WX    TMP DP  RH WIND       PRES   REMARKS
CORPUS CHRISTI PTCLDY    80  76  87 SE7       29.88S
NAS CORPUS CHR PTCLDY    81  79  94 SE12      29.87F HX  90
ROCKPORT       PTCLDY    81  77  88 SE10      29.87F
KINGSVILLE NAS PTCLDY    78  78 100 NE7       29.87F
ALICE          PTCLDY    79  76  90 E6        29.88S
FALFURRIAS     MOCLDY   N/A N/A N/A E10       29.87S
$$

...VICTORIA AREA OBSERVATIONS...

CITY           SKY/WX    TMP DP  RH WIND       PRES   REMARKS
VICTORIA       PTCLDY    77  75  93 NE5       29.90F
BEEVILLE       FAIR      76  75  97 MISG      29.90S
PLEASANTON     CLEAR     75  73  91 CALM      29.92S
SAN ANTONIO    CLOUDY    77  73  87 SE12      29.93F
$$

...LAREDO AREA OBSERVATIONS...

CITY           SKY/WX    TMP DP  RH WIND       PRES   REMARKS
LAREDO         MOCLDY    81  77  88 E7        29.89F
COTULLA        CLEAR     79  72  79 E9        29.90S
DEL RIO        CLOUDY    81  71  71 E10       29.90S
MCALLEN        MOCLDY    81  79  94 E5        29.87R HX  90
HEBBRONVILLE     N/A     80  77  90 E7        29.89F FOG
$$

...OTHER TEXAS OBSERVATIONS...

CITY           SKY/WX    TMP DP  RH WIND       PRES   REMARKS
BROWNSVILLE    CLOUDY    82  79  90 E3        29.85F HX  92
HOUSTON        PTCLDY    73  72  96 NE3       29.92F
COL. STATION   CLEAR     75  73  93 E6        29.93F
AUSTIN         MOCLDY    77  75  93 S7        29.93S
WACO           PTCLDY    74  71  91 SE5       29.95S
FORT WORTH     MOCLDY    78  70  76 SE7       29.95S
WICHITA FALLS  CLOUDY    75  68  78 SE9       29.95F
LUBBOCK        LGT RAIN  68  67  96 SE7       30.03F FOG
EL PASO        PTCLDY    73  65  75 CALM      30.00S
$$

...MARINE OBSERVATIONS...

STATION/POSITION TIME  SKY/WX   TEMP    WIND        PRES    VSBY  WAVE   SWELL
                                AIR SEA DIR/SP/G                  HT/PER HT/PER
                 (UTC)          (F)     (DEG/KT/KT) (MB)    (MI)  (FT/S) (FT/S)
PORT ARANSAS     0600            83 84  110/ 14/ 16 1012.1F
BUOY 90 E PORT A 0600            83 85  100/ 12/ 14 1012.0F         3/ 4
BUOY 45 SE BAFFI 0600            83 84  130/ 14/ 16 1010.7F         3/ 5
BUOY 200 E PT IS 0600            82 85   90/  8/  8 1011.2F         2/ 5   2/ 5
BUOY 15 E GALVES 0600            82 83  110/ 16/ 19 1012.0F         4/ 4
$$



USA.gov is the U.S. government's official web portal to all federal, state and local government web resources and services.